Miscellaneous Local Product
Issued by NWS Hastings, NE

Home | Current Version | Previous Version | Graphics & Text | Print | Product List | Glossary On
Versions: 1 2 3 4 5 6 7 8 9 10 11 12 13 14 15 16 17 18 19 20 21 22 23 24 25 26 27 28 29 30 31 32 33 34 35 36 37 38 39 40 41 42 43 44 45 46 47 48 49 50
000
AXUS43 KGID 212202
MISGRI

GID CWA HOURLY WEATHER ROUNDUP
NATIONAL WEATHER SERVICE HASTINGS NE
500 PM CDT FRI JUL 21 2017

NOTE: "FAIR" INDICATES FEW OR NO CLOUDS BELOW 12,000 FEET WITH NO
SIGNIFICANT WEATHER AND/OR OBSTRUCTIONS TO VISIBILITY.

...SOUTH CENTRAL NEBRASKA...

CITY           SKY/WX    TMP DP  RH WIND       PRES   REMARKS
GRAND ISLAND   FAIR      97  72  44 SW15      29.78F HX 105
HASTINGS       FAIR      95  71  45 W8        29.80F HX 102
KEARNEY        FAIR      95  76  53 S10       29.81F HX 108
ORD            FAIR     100  70  37 VRB7      29.75F HX 107
YORK           FAIR      93  77  59 NW7       29.78F HX 107
AURORA         FAIR      94  76  55 W6        29.79S HX 107
LEXINGTON      FAIR      95  77  55 SE7       29.82S HX 110
HOLDREGE       FAIR      96  70  43 SW5       29.83S HX 102
HEBRON         FAIR     101  67  33 S10       29.76F HX 106

...NEBRASKA PANHANDLE...

CITY           SKY/WX    TMP DP  RH WIND       PRES   REMARKS
CHADRON        FAIR      99  36  11 NW17G26   29.89F HAZE    HX  93
ALLIANCE       FAIR      96  48  19 N14       29.96F HX  92
SCOTTSBLUFF    FAIR      94  47  20 N8        29.97F HX  90
SIDNEY         FAIR      97  45  16 N8G18     30.01F HX  93

...WESTERN AND NORTH CENTRAL NEBRASKA...

CITY           SKY/WX    TMP DP  RH WIND       PRES   REMARKS
VALENTINE      FAIR     102  61  25 NW9       29.82S HX 103
AINSWORTH      FAIR      96  71  43 E6        29.82S HX 104
ONEILL         FAIR      92  75  57 N6        29.80S HX 102
BROKEN BOW     FAIR     103  63  27 W6        29.79F HX 105
IMPERIAL       FAIR     101  47  16 VRB6      29.89F HX  97
NORTH PLATTE   FAIR     103  56  21 W9        29.83F HX 102
MCCOOK         FAIR      98  62  30 S13G20    29.83S HX  99

...EASTERN NEBRASKA...

CITY           SKY/WX    TMP DP  RH WIND       PRES   REMARKS
NORFOLK        FAIR      95  70  44 S8        29.76F HX 101
SO SIOUX CITY  FAIR      89  79  72 E12       29.76F HX 104
TEKAMAH        FAIR      96  75  50 SW8       29.75S HX 108
COLUMBUS       FAIR      94  76  55 S12G18    29.76  HX 106
ALBION         FAIR      97  75  48 S12       29.76F HX 109
OMAHA EPPLEY   FAIR     102  74  40 S13G23    29.74F HX 114
OFFUTT AFB     FAIR      99  76  47 S12       29.75S HX 113
MILLARD        FAIR     103  75  41 S9        29.75F HX 116
LINCOLN        FAIR     100  71  39 SW12      29.75F HX 108
NEBRASKA CITY  FAIR      97  75  50 SW10      29.77F HX 109
BEATRICE       FAIR     104  66  29 S17G29    29.76F HX 108
FALLS CITY     NOT AVBL

...NORTHERN KANSAS...

CITY           SKY/WX    TMP DP  RH WIND       PRES   REMARKS
GOODLAND       FAIR      98  54  22 S13       29.91F HX  96
HILL CITY      FAIR     107  51  15 SW10G21   29.81S HX 104
NORTON         CLEAR    108  43  11 SW13      29.81  HX 102
PHILLIPSBURG   SUNNY    108  54  16 SW9G16    29.78S HX 106
SMITH CENTER   CLOUDY   100  63  28 SW12      29.78F HX 102
HAYS           FAIR     106  56  19 SW12G23   29.81F HX 105
RUSSELL        FAIR     107  55  18 SW20      29.79F HX 106
CONCORDIA      FAIR     104  61  24 SW16      29.77F HX 105
SALINA         FAIR     109  56  17 S21G30    29.79F HX 108
TOPEKA         FAIR     100  72  40 S12G21    29.82S HX 109



USA.gov is the U.S. government's official web portal to all federal, state and local government web resources and services.